Date String (YYYY-MM-DD hh:mm:ss) UTC,Instrument flags,Ambient pressure (hPa),Sample flow (lpm),Bypass flow (lpm),Sample temperature (°C),Ambient temperature (°C),ASC tube jacket temperature (°C),LED temperature (°C),Box temperature (°C),Sample RH (%),Span deviation,Mass concentration (μg/m³),Mass concentration (μg/m³),Mass concentration (μg/m³)
DateTimeUTC,F1_M11,P_M11,Q1_M11,Q2_M11,T1_M11,T2_M11,T3_M11,T4_M11,T5_M11,U1_M11,ZSPAN_M11,X0_M11,X2_M11,X1_M11
2022-09-02 06:00:00,,0825.8,5.01,0.00,29.9,28.3,00.0,38.6,31.7,13.6,0000.0,0010.37,0006.77,0006.23
2022-09-02 06:01:00,,0825.8,5.01,0.00,29.9,28.5,00.0,38.6,31.7,13.3,0000.0,0010.52,0006.81,0006.25
2022-09-02 06:02:00,,0825.8,5.00,0.00,29.9,28.6,00.0,38.6,31.8,12.9,0000.0,0010.71,0006.88,0006.28
2022-09-02 06:03:00,,0825.8,4.98,0.00,29.9,28.7,00.0,38.7,31.8,12.9,0000.0,0010.74,0006.93,0006.30
2022-09-02 06:04:00,,0825.8,5.00,0.00,29.9,28.8,00.0,38.7,31.8,12.8,0000.0,0010.52,0006.92,0006.30
2022-09-02 06:05:00,,0825.9,5.01,0.00,30.0,28.9,00.0,38.7,31.9,12.7,0000.0,0010.52,0006.96,0006.33
2022-09-02 06:06:00,,0825.9,5.01,0.00,30.0,29.0,00.0,38.7,31.9,12.6,0000.0,0010.45,0006.98,0006.37
2022-09-02 06:07:00,,0825.9,4.98,0.00,30.0,29.0,00.0,38.7,31.9,12.7,0000.0,0010.38,0006.96,0006.38
2022-09-02 06:08:00,,0826.0,5.00,0.00,30.1,29.1,00.0,38.8,32.0,13.4,0000.0,0010.36,0006.96,0006.39
2022-09-02 06:09:00,,0826.0,4.99,0.00,30.1,28.4,00.0,38.8,31.9,13.3,0000.0,0010.47,0006.96,0006.39
2022-09-02 06:10:00,,0825.9,5.00,0.00,30.0,26.8,00.0,38.7,31.7,13.9,0000.0,0010.62,0006.93,0006.39
2022-09-02 06:11:00,,0825.9,5.00,0.00,29.9,26.2,00.0,38.7,31.6,14.7,0000.0,0010.44,0006.94,0006.40
2022-09-02 06:12:00,,0825.9,5.00,0.00,29.9,26.4,00.0,38.6,31.5,15.1,0000.0,0010.57,0006.91,0006.40
2022-09-02 06:13:00,,0825.9,5.00,0.00,29.8,26.7,00.0,38.6,31.4,15.4,0000.0,0010.66,0006.88,0006.39
2022-09-02 06:14:00,,0825.9,5.00,0.00,29.7,27.1,00.0,38.6,31.4,14.6,0000.0,0010.74,0006.88,0006.39
2022-09-02 06:15:00,,0825.9,4.99,0.00,29.7,27.5,00.0,38.5,31.4,14.2,0000.0,0010.74,0006.88,0006.40
2022-09-02 06:16:00,,0826.0,5.01,0.00,29.7,27.8,00.0,38.5,31.4,15.0,0000.0,0010.78,0006.89,0006.39
2022-09-02 06:17:00,,0825.9,5.00,0.00,29.7,28.0,00.0,38.5,31.5,15.0,0000.0,0010.84,0006.89,0006.37
2022-09-02 06:18:00,,0825.9,5.01,0.00,29.7,28.2,00.0,38.5,31.5,14.2,0000.0,0010.92,0006.92,0006.36
2022-09-02 06:19:00,,0825.9,4.99,0.00,29.7,28.3,00.0,38.5,31.6,14.1,0000.0,0011.59,0006.96,0006.37
2022-09-02 06:20:00,,0825.9,4.99,0.00,29.8,28.4,00.0,38.5,31.6,14.3,0000.0,0011.92,0006.98,0006.37
2022-09-02 06:21:00,,0825.9,5.01,0.00,29.8,28.6,00.0,38.5,31.7,14.3,0000.0,0012.29,0007.02,0006.38
2022-09-02 06:22:00,,0825.9,5.01,0.00,29.8,28.7,00.0,38.5,31.7,14.6,0000.0,0012.63,0007.00,0006.38
2022-09-02 06:23:00,,0826.0,4.99,0.00,29.8,28.8,00.0,38.6,31.7,15.4,0000.0,0012.61,0006.98,0006.38
2022-09-02 06:24:00,,0826.0,5.01,0.00,29.9,28.8,00.0,38.6,31.7,16.0,0000.0,0012.57,0006.98,0006.39
2022-09-02 06:25:00,,0826.0,5.01,0.00,29.9,28.9,00.0,38.6,31.8,15.9,0000.0,0012.52,0006.99,0006.40
2022-09-02 06:26:00,,0826.0,5.01,0.00,29.9,29.0,00.0,38.6,31.9,15.9,0000.0,0012.56,0007.02,0006.42
2022-09-02 06:27:00,,0826.0,4.99,0.00,30.0,29.0,00.0,38.7,31.9,15.7,0000.0,0012.60,0007.01,0006.41
2022-09-02 06:28:00,,0826.0,5.00,0.00,30.0,29.1,00.0,38.7,31.9,16.2,0000.0,0012.56,0007.00,0006.41
2022-09-02 06:29:00,,0826.0,5.00,0.00,30.0,29.1,00.0,38.7,32.0,16.1,0000.0,0012.60,0006.99,0006.41
2022-09-02 06:30:00,,0826.0,5.00,0.00,30.1,28.8,00.0,38.7,32.0,15.8,0000.0,0012.06,0006.97,0006.40
2022-09-02 06:31:00,,0826.0,4.99,0.00,30.0,27.3,00.0,38.7,31.8,15.7,0000.0,0011.85,0006.98,0006.39
2022-09-02 06:32:00,,0825.9,5.01,0.00,29.9,26.3,00.0,38.7,31.6,15.6,0000.0,0011.40,0006.94,0006.37
2022-09-02 06:33:00,,0826.0,4.99,0.00,29.9,26.4,00.0,38.6,31.6,15.2,0000.0,0011.39,0006.93,0006.37
2022-09-02 06:34:00,,0825.9,5.00,0.00,29.8,26.7,00.0,38.6,31.4,14.4,0000.0,0011.14,0006.93,0006.36
2022-09-02 06:35:00,,0825.9,5.00,0.00,29.7,27.1,00.0,38.5,31.4,14.5,0000.0,0010.96,0006.93,0006.35
2022-09-02 06:36:00,,0826.0,5.01,0.00,29.7,27.4,00.0,38.5,31.4,16.0,0000.0,0011.11,0006.95,0006.33
2022-09-02 06:37:00,,0826.0,4.99,0.00,29.7,27.7,00.0,38.5,31.5,16.1,0000.0,0011.06,0006.92,0006.32
2022-09-02 06:38:00,,0826.0,5.00,0.00,29.7,28.0,00.0,38.5,31.5,16.1,0000.0,0011.15,0006.97,0006.34
2022-09-02 06:39:00,,0826.0,5.01,0.00,29.7,28.2,00.0,38.5,31.5,16.1,0000.0,0011.12,0006.96,0006.33
2022-09-02 06:40:00,,0826.0,5.00,0.00,29.7,28.3,00.0,38.5,31.6,16.0,0000.0,0011.13,0006.96,0006.32
2022-09-02 06:41:00,,0826.0,5.01,0.00,29.8,28.4,00.0,38.5,31.6,16.0,0000.0,0011.18,0006.96,0006.33
2022-09-02 06:42:00,,0826.0,4.99,0.00,29.8,28.5,00.0,38.5,31.7,16.1,0000.0,0011.11,0006.93,0006.33
2022-09-02 06:43:00,,0826.0,5.00,0.00,29.8,28.6,00.0,38.5,31.7,16.5,0000.0,0010.92,0006.95,0006.35
2022-09-02 06:44:00,,0826.1,5.00,0.00,29.8,28.7,00.0,38.6,31.7,16.4,0000.0,0010.84,0007.01,0006.38
2022-09-02 06:45:00,,0826.1,5.01,0.00,29.9,28.8,00.0,38.6,31.7,16.6,0000.0,0011.45,0007.09,0006.41
2022-09-02 06:46:00,,0826.1,4.99,0.00,29.9,28.9,00.0,38.6,31.8,16.7,0000.0,0011.63,0007.16,0006.45
2022-09-02 06:47:00,,0826.2,5.01,0.00,29.9,28.9,00.0,38.6,31.8,16.9,0000.0,0012.10,0007.16,0006.49
2022-09-02 06:48:00,,0826.2,5.00,0.00,30.0,29.0,00.0,38.6,31.9,17.1,0000.0,0012.40,0007.20,0006.53
2022-09-02 06:49:00,,0826.2,4.98,0.00,30.0,29.1,00.0,38.7,31.9,17.2,0000.0,0012.97,0007.24,0006.57
2022-09-02 06:50:00,,0826.2,5.01,0.00,30.0,29.1,00.0,38.7,32.0,17.4,0000.0,0013.29,0007.31,0006.63
2022-09-02 06:51:00,,0826.2,5.00,0.00,30.1,29.2,00.0,38.7,32.0,17.4,0000.0,0013.77,0007.35,0006.68
2022-09-02 06:52:00,,0826.2,4.99,0.00,30.1,29.2,00.0,38.8,32.0,17.3,0000.0,0015.25,0007.42,0006.73
2022-09-02 06:53:00,,0826.2,5.00,0.00,30.1,28.8,00.0,38.8,32.0,17.3,0000.0,0015.51,0007.47,0006.79
2022-09-02 06:54:00,,0826.2,5.00,0.00,30.1,27.5,00.0,38.8,31.8,17.2,0000.0,0015.79,0007.51,0006.82
2022-09-02 06:55:00,,0826.2,5.01,0.00,30.0,27.1,00.0,38.7,31.8,17.3,0000.0,0015.86,0007.53,0006.84
2022-09-02 06:56:00,,0826.2,5.01,0.00,30.0,27.2,00.0,38.7,31.7,17.5,0000.0,0015.64,0007.56,0006.85
2022-09-02 06:57:00,,0826.2,5.00,0.00,29.9,27.5,00.0,38.7,31.7,17.5,0000.0,0015.75,0007.60,0006.86
2022-09-02 06:58:00,,0826.2,5.00,0.00,29.9,27.9,00.0,38.7,31.7,17.3,0000.0,0015.74,0007.61,0006.87
2022-09-02 06:59:00,,0826.1,5.00,0.00,29.9,28.1,00.0,38.7,31.7,17.3,0000.0,0016.43,0007.62,0006.89
